EW3989 Weather Reports


Display with metric or nautical units.
time (UTC)temp
F
wind
direction
speed
MPH
gust
MPH
rain 1hr
in
rain 24hr
in
rain mn
in
humidity
%
barometer
mb
20260905000040 81 0.0 0.0 0.00 0.42 0.12 85 1012.7
20260904235020 81 0.0 0.0 0.00 0.42 0.12 84 1012.7
20260904234057 81 0.0 0.0 0.00 0.42 0.12 84 1013.0
20260904233040 82 0.0 0.0 0.00 0.42 0.12 83 1013.2
20260904232019 82 0.0 0.0 0.00 0.42 0.12 81 1012.6
20260904231019 82 0.0 2.0 0.00 0.42 0.12 81 1011.7
20260904230037 82 0.0 0.0 0.00 0.42 0.12 81 1012.5
20260904225019 83 0.0 1.0 0.00 0.42 0.12 80 1011.8
20260904224037 83 0.0 0.0 0.00 0.42 0.12 79 1011.8
20260904223028 83 0.0 1.0 0.00 0.42 0.12 78 1012.2
20260904222019 84 0.0 1.0 0.00 0.42 0.12 78 1012.1
20260904221020 84 0.0 0.0 0.00 0.42 0.12 76 1011.9
20260904220020 85 0.0 0.0 0.00 0.42 0.12 76 1012.0
20260904215039 85 0.0 0.0 0.00 0.42 0.12 75 1012.0
20260904214019 85 0.0 0.0 0.00 0.42 0.12 74 1012.0
20260904213036 85 0.0 1.0 0.00 0.42 0.12 73 1011.9
20260904212028 85 0.0 0.0 0.00 0.42 0.12 74 1011.8
20260904211019 85 0.0 0.0 0.00 0.42 0.12 73 1011.8
20260904210039 86 0.0 2.0 0.00 0.42 0.12 73 1012.0
20260904205019 86 0.0 0.0 0.00 0.42 0.12 75 1012.0
20260904204019 85 0.0 1.0 0.00 0.42 0.12 74 1011.8
20260904203019 84 0.0 0.0 0.00 0.42 0.12 75 1011.8
20260904202108 83 0.0 1.0 0.00 0.42 0.12 78 1011.9
20260904201048 83 0.0 1.0 0.00 0.42 0.12 78 1012.0
20260904200039 83 0.0 1.0 0.00 0.42 0.12 78 1012.1
20260904195039 83 0.0 2.0 0.00 0.42 0.12 76 1012.3
20260904194036 83 0.0 2.0 0.00 0.42 0.12 78 1012.4
20260904193028 83 0.0 3.0 0.00 0.42 0.12 77 1012.4
20260904192019 83 0.0 0.0 0.00 0.42 0.12 77 1012.5
20260904191019 83 0.0 5.0 0.00 0.42 0.12 75 1012.6
20260904190019 84 0.0 5.0 0.00 0.42 0.12 75 1012.7
20260904185019 85 0.0 5.0 0.00 0.42 0.12 74 1012.8
20260904184100 85 0.0 2.0 0.00 0.42 0.12 72 1012.9
20260904183019 85 0.0 6.0 0.00 0.42 0.12 74 1013.0
20260904182048 85 0.0 5.0 0.00 0.42 0.12 75 1013.0
20260904181019 85 0.0 4.0 0.00 0.42 0.12 74 1012.9
20260904180019 85 203 1.0 4.0 0.00 0.42 0.12 75 1012.9
20260904175057 84 0.0 2.0 0.00 0.42 0.12 76 1012.7
20260904174019 84 0.0 3.0 0.00 0.42 0.12 78 1012.7
20260904173019 83 225 1.0 4.0 0.00 0.42 0.12 76 1012.6
20260904172057 83 0.0 3.0 0.00 0.42 0.12 77 1012.8
20260904171019 83 0.0 2.0 0.00 0.42 0.12 79 1012.8
20260904170019 82 0.0 1.0 0.00 0.42 0.12 79 1012.9
20260904165019 81 0.0 2.0 0.00 0.42 0.12 82 1012.9
20260904164019 81 0.0 3.0 0.00 0.42 0.12 82 1013.1
20260904163019 80 0.0 6.0 0.00 0.42 0.12 83 1013.1
20260904162019 80 0.0 1.0 0.00 0.42 0.12 85 1013.2
20260904161045 79 0.0 3.0 0.00 0.42 0.12 85 1013.4
20260904160019 78 0.0 2.0 0.00 0.42 0.12 87 1013.3
20260904155028 78 0.0 4.0 0.00 0.42 0.12 88 1013.4
20260904154036 76 0.0 2.0 0.00 0.42 0.12 89 1013.4
20260904153028 75 0.0 2.0 0.00 0.42 0.12 88 1013.3
20260904152036 75 0.0 2.0 0.00 0.42 0.12 88 1013.2
20260904151036 74 0.0 2.0 0.00 0.42 0.12 84 1013.1
20260904150027 73 0.0 3.0 0.00 0.42 0.12 83 1013.1
20260904145028 73 0.0 3.0 0.00 0.42 0.12 82 1013.3
20260904144019 73 0.0 4.0 0.00 0.42 0.12 81 1013.2
20260904143044 72 0.0 3.0 0.00 0.43 0.12 80 1013.2
20260904142036 72 0.0 2.0 0.00 0.43 0.12 80 1013.3
20260904141019 72 0.0 1.0 0.00 0.43 0.12 81 1013.2
20260904140044 71 0.0 1.0 0.00 0.43 0.12 81 1013.3
20260904135018 71 0.0 1.0 0.00 0.43 0.12 81 1013.3
20260904134027 70 0.0 1.0 0.00 0.43 0.12 81 1013.2
20260904133019 70 0.0 0.0 0.00 0.43 0.12 81 1013.3
20260904132044 70 0.0 0.0 0.00 0.44 0.12 81 1013.4
20260904131028 70 0.0 1.0 0.00 0.46 0.12 81 1013.1
20260904130045 70 0.0 0.0 0.00 0.46 0.12 81 1012.8
20260904125039 69 0.0 1.0 0.00 0.46 0.12 81 1012.7
20260904124036 69 0.0 1.0 0.00 0.46 0.12 81 1012.8
20260904123028 69 0.0 1.0 0.00 0.46 0.12 81 1013.0
20260904122019 69 0.0 3.0 0.00 0.46 0.12 81 1012.4
20260904121018 69 0.0 1.0 0.00 0.46 0.12 81 1012.4
20260904120048 69 0.0 1.0 0.00 0.46 0.12 81 1012.1
20260904115019 69 0.0 2.0 0.00 0.46 0.12 81 1012.0
20260904114018 69 0.0 1.0 0.00 0.46 0.12 81 1012.0
20260904113027 69 0.0 0.0 0.00 0.46 0.12 81 1012.5
20260904112018 69 0.0 0.0 0.00 0.46 0.12 81 1012.4
20260904111019 69 0.0 3.0 0.01 0.46 0.12 81 1012.2
20260904110018 69 68 1.0 5.0 0.02 0.46 0.12 81 1011.8
20260904105018 69 0.0 2.0 0.02 0.46 0.12 81 1011.6
20260904104018 69 0.0 1.0 0.03 0.46 0.12 81 1011.8
20260904103018 69 0.0 1.0 0.03 0.46 0.12 81 1011.9
20260904102027 69 0.0 1.0 0.03 0.46 0.12 81 1011.6
20260904101019 69 0.0 0.0 0.02 0.45 0.11 81 1011.9
20260904100036 69 0.0 1.0 0.01 0.44 0.10 81 1011.8
20260904095018 69 0.0 0.0 0.04 0.44 0.10 81 1012.2
20260904094038 69 0.0 0.0 0.04 0.43 0.09 81 1012.1
20260904093018 69 0.0 0.0 0.05 0.43 0.09 81 1012.1
20260904092035 69 0.0 0.0 0.09 0.43 0.09 81 1011.7
20260904091027 69 0.0 1.0 0.09 0.43 0.09 81 1011.5
20260904090020 69 0.0 1.0 0.09 0.43 0.09 82 1011.6
20260904085018 70 0.0 1.0 0.06 0.40 0.06 82 1011.6
20260904084039 70 0.0 2.0 0.05 0.39 0.05 83 1011.6
20260904083019 70 0.0 1.0 0.04 0.38 0.04 84 1011.6
20260904082038 70 0.0 1.0 0.00 0.34 0.00 85 1011.7
20260904081018 70 0.0 1.0 0.00 0.34 0.00 85 1011.5
20260904080026 70 0.0 1.0 0.00 0.34 0.00 85 1011.6
20260904075018 70 0.0 0.0 0.00 0.34 0.00 85 1011.8
20260904074038 70 0.0 0.0 0.00 0.34 0.00 85 1011.8
20260904073038 70 0.0 1.0 0.00 0.34 0.00 85 1011.8
20260904072018 70 0.0 0.0 0.00 0.34 0.00 86 1011.9
20260904071029 70 0.0 1.0 0.00 0.34 0.00 87 1011.9
20260904070038 71 0.0 3.0 0.00 0.34 0.00 87 1012.0
20260904065035 71 0.0 1.0 0.00 0.34 0.00 87 1012.3
20260904064020 72 0.0 3.0 0.00 0.34 0.00 87 1012.4
20260904063039 72 0.0 2.0 0.00 0.34 0.00 87 1011.8
20260904062020 72 68 1.0 4.0 0.00 0.34 0.00 84 1011.5
20260904061049 71 68 2.0 9.0 0.00 0.34 0.00 81 1011.3
20260904060027 71 0.0 1.0 0.00 0.34 0.00 81 1012.2
20260904055020 71 0.0 0.0 0.00 0.34 0.00 81 1011.8
20260904054019 71 0.0 1.0 0.00 0.34 0.00 81 1011.6
20260904053045 70 0.0 0.0 0.00 0.34 0.00 81 1011.7
20260904052036 70 0.0 2.0 0.00 0.34 0.00 81 1011.0
20260904051018 70 0.0 1.0 0.00 0.34 0.00 81 1010.6
20260904050029 70 0.0 1.0 0.00 0.34 0.34 82 1010.6
20260904045049 70 0.0 1.0 0.00 0.34 0.34 82 1010.8
20260904044020 71 0.0 1.0 0.00 0.34 0.34 82 1011.4
20260904043038 71 0.0 0.0 0.00 0.34 0.34 81 1011.8
20260904042020 71 0.0 0.0 0.00 0.34 0.34 81 1012.0
20260904041046 72 0.0 0.0 0.00 0.34 0.34 81 1012.5
20260904040020 72 0.0 0.0 0.00 0.34 0.34 81 1012.8
20260904035040 72 0.0 0.0 0.00 0.34 0.34 81 1012.8
20260904034020 72 0.0 1.0 0.00 0.34 0.34 81 1012.8
20260904033028 72 0.0 0.0 0.00 0.34 0.34 81 1012.8
20260904032020 72 0.0 0.0 0.00 0.34 0.34 81 1012.8
20260904031039 72 0.0 1.0 0.00 0.34 0.34 81 1012.7
20260904030028 72 0.0 1.0 0.00 0.34 0.34 81 1012.7
20260904025037 72 0.0 1.0 0.00 0.34 0.34 81 1012.6
20260904024019 72 0.0 1.0 0.00 0.34 0.34 81 1012.7
20260904023049 73 0.0 1.0 0.00 0.34 0.34 81 1012.9
20260904022037 73 0.0 1.0 0.28 0.34 0.34 82 1012.8
20260904021020 73 0.0 1.0 0.30 0.34 0.34 83 1013.0
20260904020019 73 0.0 1.0 0.30 0.34 0.34 83 1013.2
20260904015020 73 0.0 2.0 0.30 0.34 0.34 84 1013.5
20260904014029 74 0.0 1.0 0.30 0.34 0.34 84 1014.1
20260904013020 74 0.0 2.0 0.30 0.34 0.34 85 1015.1
20260904012037 75 0.0 2.0 0.02 0.06 0.06 88 1015.3
20260904011020 75 0.0 0.0 0.00 0.04 0.04 89 1013.5
20260904010045 76 0.0 0.0 0.00 0.04 0.04 88 1012.9
20260904005036 76 0.0 0.0 0.00 0.04 0.04 88 1012.7
20260904004046 76 0.0 0.0 0.00 0.04 0.04 88 1012.4
20260904003039 76 0.0 0.0 0.00 0.04 0.04 88 1012.2
20260904002028 76 0.0 0.0 0.00 0.04 0.04 88 1012.2
20260904001029 77 0.0 0.0 0.00 0.04 0.04 88 1012.6